Theta_e
311 303 303 301 288 286 281 286 288 291 292 292 297 299 296 293 294 289 297 298 299 306 314 317 327 327 328 332 336 339 344 345 345 346 347 346 346 347 349 349 350 348 350 349 349 347 346 345 346
305 308 304 292 285 279 280 285 288 289 291 292 295 296 293 289 294 294 294 298 300 306 311 315 324 324 325 326 327 332 336 340 345 345 346 347 347 347 347 349 348 348 348 348 348 347 344 345 344
300 307 298 287 281 279 282 287 286 290 289 290 292 295 291 290 292 292 294 299 301 301 305 313 319 320 322 323 324 325 326 330 337 340 344 344 347 347 348 348 348 348 347 347 346 345 344 344 343
301 297 291 286 282 282 284 284 286 287 288 290 287 288 288 291 291 293 298 299 299 299 301 308 315 317 317 319 321 321 322 324 327 331 336 341 344 345 346 347 348 347 347 347 347 347 346 344 343
294 289 283 281 282 284 283 284 285 285 284 286 287 286 286 292 295 296 297 298 297 297 299 301 311 312 313 315 316 316 318 319 322 324 328 332 336 341 344 345 346 346 347 346 345 345 345 343 342
290 287 280 278 280 283 283 282 284 283 283 284 286 288 288 292 295 295 296 295 296 297 297 298 303 307 309 310 311 312 313 315 317 319 321 324 328 331 338 343 344 344 346 345 345 343 343 343 343
287 284 280 279 280 282 283 283 280 280 282 282 283 285 287 291 294 295 295 295 295 296 296 295 296 300 303 306 307 308 309 310 311 313 316 319 321 326 333 337 342 344 344 345 343 342 342 342 342
288 284 279 278 279 281 281 282 282 282 281 286 284 282 284 289 296 296 295 294 294 294 294 294 294 295 295 296 303 305 305 307 307 308 309 312 319 323 326 330 336 341 342 343 342 341 341 341 340
286 281 278 278 279 280 282 281 282 284 281 284 285 284 290 294 295 292 291 292 292 294 293 293 293 293 294 295 297 300 302 303 304 304 305 307 311 315 321 321 324 337 339 340 341 341 339 337 335
282 278 279 279 279 278 281 281 282 283 282 283 284 288 292 293 291 289 289 289 289 290 291 292 292 292 292 295 294 295 296 297 298 300 301 303 305 311 318 320 322 329 332 336 338 339 336 331 334
281 279 282 282 283 283 283 282 284 282 281 283 283 287 289 291 291 290 289 289 288 289 291 292 291 292 291 292 293 293 294 294 296 297 298 300 303 306 312 318 319 322 325 331 334 335 334 332 333
281 285 284 284 287 285 283 284 283 284 284 286 287 287 288 289 290 290 289 288 289 290 290 291 291 291 291 292 292 291 291 293 293 294 297 299 300 302 305 311 316 317 321 331 331 332 333 332 332
283 284 286 286 287 286 286 284 283 284 287 288 288 288 288 288 290 289 290 290 289 288 289 289 290 290 291 291 291 291 291 292 293 294 297 299 298 299 302 306 312 317 317 318 331 332 331 331 331
284 284 284 286 286 286 284 283 283 284 285 286 288 288 288 288 289 287 288 288 287 288 288 289 289 290 291 290 290 291 291 292 292 293 295 297 298 299 300 302 306 312 317 316 316 330 331 331 331
285 281 282 284 285 284 284 280 281 283 285 285 286 287 288 288 288 288 288 287 287 288 288 288 289 290 289 289 290 291 291 292 291 293 295 296 298 298 299 300 302 306 312 315 314 313 331 331 331
280 279 275 281 284 284 283 277 281 284 282 284 285 285 286 287 288 287 288 287 287 287 287 288 289 288 289 289 289 290 290 290 291 293 293 294 296 297 298 299 300 304 308 313 314 314 313 329 329
276 271 276 278 284 282 281 278 282 284 284 283 283 282 284 285 286 286 286 285 286 286 286 286 287 287 287 287 288 288 289 290 291 292 293 293 295 296 298 299 301 303 306 309 315 316 315 316 327
271 272 276 275 279 281 279 279 283 284 282 281 281 281 283 284 285 286 286 286 286 285 285 285 286 286 286 287 287 287 288 289 290 291 292 294 295 296 296 297 300 303 304 306 312 316 319 319 325
277 276 274 277 280 279 277 278 281 283 280 279 280 280 282 283 284 284 285 285 285 285 284 285 285 285 285 285 284 284 285 287 289 291 293 293 294 295 295 296 298 301 302 305 308 308 310 317 324
278 271 271 277 280 279 277 277 280 280 279 280 280 279 281 281 281 284 284 283 283 283 283 284 284 285 285 285 285 285 286 287 289 290 292 293 294 296 296 296 296 298 301 304 305 306 307 316 323
276 272 271 275 278 276 274 273 275 278 281 280 280 279 279 281 281 282 283 283 282 282 282 284 284 284 284 284 285 285 286 287 288 289 291 292 294 296 296 297 297 298 299 302 304 307 308 309 319
271 279 279 277 269 265 274 265 274 276 278 280 280 279 279 279 280 281 282 281 281 282 282 283 283 283 284 284 284 283 284 283 286 288 290 291 293 294 296 297 298 298 300 301 304 308 310 311 313
277 280 278 274 264 267 267 263 272 275 276 278 279 280 279 280 279 281 281 282 282 282 281 282 282 282 283 283 284 283 283 286 287 287 288 290 292 293 294 297 297 297 299 302 304 307 308 311 313
279 274 272 269 261 260 262 263 269 272 274 276 278 279 280 280 279 280 281 281 281 281 280 280 281 281 282 282 282 282 283 285 285 286 287 288 290 291 295 297 298 298 299 301 304 307 308 308 312
276 265 261 262 259 262 258 264 272 275 275 276 278 279 279 279 278 279 279 278 280 280 281 281 281 280 281 281 281 282 283 284 284 285 286 287 289 290 294 297 298 298 300 302 306 308 309 310 309
273 267 263 258 259 261 260 263 271 275 277 277 278 278 279 278 279 278 278 278 279 280 280 280 280 280 280 279 280 281 282 284 284 285 286 287 288 290 293 299 299 300 303 305 307 308 309 310 311
270 266 270 259 255 257 261 266 274 276 272 275 276 277 277 278 278 278 278 277 277 277 278 278 279 279 280 279 279 280 282 283 283 284 287 287 289 293 296 299 301 301 303 306 305 306 305 306 307
271 274 265 262 258 256 259 255 269 269 267 271 272 271 275 277 276 276 276 276 276 276 277 278 279 279 279 279 280 280 281 282 284 285 285 287 289 293 294 297 299 299 299 300 301 302 303 303 303
272 266 265 264 265 259 256 264 269 269 267 268 270 272 272 273 274 274 274 273 274 275 275 277 278 278 278 279 280 280 281 282 284 285 287 288 290 291 294 294 296 298 298 299 299 299 300 300 302
273 267 271 265 260 261 263 267 274 268 263 260 269 272 273 272 273 271 270 271 273 273 274 275 277 278 279 279 280 280 280 282 284 285 288 290 289 291 293 292 293 294 294 294 296 295 297 297 298
Wind_Speed
7 5 2 6 6 6 2 4 0 3 3 4 3 4 8 4 4 4 2 6 7 6 8 12 22 23 23 22 21 18 21 15 10 7 6 5 5 6 7 7 8 9 11 12 12 12 11 9 9
4 1 5 3 6 3 5 3 2 2 3 6 1 2 8 4 3 3 3 9 6 6 7 11 19 22 23 24 23 21 22 18 18 13 11 8 8 8 9 9 9 10 11 12 12 12 12 12 10
1 3 5 5 4 5 4 2 1 2 5 3 4 6 3 2 1 3 4 5 6 9 8 12 20 22 23 23 24 24 22 22 19 18 16 14 11 10 10 10 10 11 12 12 13 12 12 12 11
2 5 5 5 4 3 1 1 4 5 3 7 2 6 3 1 2 2 3 5 8 8 8 13 20 21 21 22 22 23 23 23 22 20 18 19 14 13 11 11 11 11 12 13 14 14 13 12 12
5 3 5 3 3 1 0 2 3 2 2 4 3 3 4 3 6 5 5 6 7 7 7 7 19 20 21 20 21 22 22 22 21 22 20 19 18 17 15 13 13 13 13 14 13 13 13 14 13
5 4 4 3 4 1 1 4 3 2 2 2 4 4 3 3 3 3 5 6 6 6 7 8 14 19 20 20 22 22 23 22 22 22 22 21 19 19 18 16 15 15 14 14 14 14 14 15 14
6 4 3 4 3 1 2 6 2 2 2 3 1 4 2 2 3 4 3 4 5 6 6 6 7 11 16 17 20 22 22 21 22 21 20 21 22 19 17 16 16 16 17 15 14 14 14 16 16
5 5 4 0 4 3 2 3 2 4 1 6 2 5 4 4 5 4 3 5 5 6 6 6 6 6 7 6 16 21 22 21 20 20 19 20 17 17 15 16 13 17 17 17 15 15 15 17 17
2 6 2 5 5 2 2 2 1 2 3 4 1 3 3 5 5 2 2 4 3 4 5 6 6 6 6 6 8 12 16 20 19 15 17 14 8 11 12 14 18 17 17 18 18 16 16 15 15
6 4 5 2 3 2 1 0 2 3 3 3 1 1 4 3 2 1 1 3 3 4 5 6 6 6 6 7 6 5 7 6 7 8 9 7 9 8 12 10 16 19 14 14 18 17 14 11 7
1 3 4 3 3 2 1 2 3 2 5 8 5 6 4 4 5 5 5 5 2 2 2 5 5 6 6 5 4 2 4 4 4 6 6 7 7 6 6 5 5 8 8 6 8 9 8 7 7
5 2 2 3 2 2 2 0 3 6 7 2 8 2 2 5 6 5 4 3 4 6 6 7 7 7 7 4 4 4 4 5 5 7 7 5 5 6 6 6 7 5 7 8 7 5 8 9 10
3 1 1 1 3 4 1 5 5 9 11 8 7 5 7 7 8 6 4 2 4 5 6 7 7 6 6 5 4 4 5 5 6 6 6 5 6 6 6 6 7 6 6 7 8 8 8 10 11
1 1 2 1 1 1 2 3 3 5 3 5 3 6 7 8 8 3 4 2 3 5 6 6 7 7 6 7 9 7 5 6 6 6 6 8 6 6 6 6 7 7 6 5 7 9 10 11 11
1 2 1 4 3 4 3 5 8 5 2 5 6 7 7 6 7 7 3 2 4 5 7 7 8 7 8 9 8 7 7 8 7 7 7 6 8 8 8 7 7 7 7 9 7 10 13 12 12
5 5 4 2 4 2 5 10 4 5 3 9 10 7 6 7 7 5 4 2 5 7 8 8 9 10 9 8 8 7 8 8 7 8 7 9 9 11 10 8 7 6 7 8 7 8 8 12 12
8 2 2 8 5 2 1 10 7 3 6 10 9 7 7 6 6 5 2 2 4 5 6 8 8 10 11 10 9 9 10 7 7 7 7 10 10 10 9 8 8 7 7 8 9 9 7 7 8
3 3 2 5 2 3 6 20 20 11 6 10 12 7 7 7 7 2 2 3 5 5 6 6 7 10 10 9 8 8 8 7 8 7 6 10 9 10 9 9 9 8 8 9 9 9 7 7 7
5 1 3 5 3 6 7 15 23 17 9 9 10 8 7 7 4 2 3 5 5 5 6 7 9 11 9 9 9 8 8 9 9 8 10 13 10 11 10 8 9 9 9 10 9 9 11 9 9
4 3 5 6 2 4 7 22 21 12 6 6 5 5 6 4 3 4 4 4 5 6 7 8 10 11 10 8 8 9 10 9 10 10 10 14 14 12 11 10 9 11 10 11 11 12 10 10 8
1 4 3 4 8 2 8 10 6 4 3 3 2 3 4 5 5 7 6 6 6 7 8 10 11 12 11 13 9 9 9 9 8 9 9 11 12 12 11 12 10 10 11 11 11 12 13 10 9
1 3 0 2 5 3 6 9 8 5 8 5 5 6 7 7 5 6 7 6 7 7 7 7 10 11 11 12 11 13 12 11 10 10 10 13 15 16 15 14 11 12 10 13 12 11 12 10 11
1 3 2 3 4 4 5 3 11 4 7 8 7 8 9 8 7 8 7 7 7 8 7 8 9 10 11 11 12 11 13 11 10 9 14 15 15 16 17 15 14 14 11 13 14 13 12 10 10
4 4 5 4 4 4 4 4 9 4 5 4 3 5 8 8 8 8 7 6 8 7 7 7 7 11 10 11 13 14 16 14 12 12 12 12 11 12 15 15 14 14 13 14 15 15 14 11 9
5 7 5 8 6 6 2 1 15 8 5 5 9 10 8 8 8 8 8 7 7 8 8 7 10 13 11 11 12 13 14 15 17 15 11 13 10 11 13 17 12 12 14 15 16 14 12 11 9
3 6 7 5 3 7 3 8 10 6 6 7 8 9 9 10 8 8 8 7 8 10 10 9 10 13 12 11 12 12 14 10 11 14 12 10 11 11 15 16 13 14 14 15 16 11 10 9 8
2 2 3 8 2 4 3 10 13 4 7 5 7 6 11 11 9 8 8 7 7 9 10 10 12 13 13 13 12 13 12 13 13 16 12 10 12 11 15 15 11 14 13 11 7 4 4 5 3
5 3 5 4 2 7 7 8 10 7 7 7 6 7 9 9 9 7 6 6 7 7 8 10 11 13 13 12 12 12 13 13 13 13 14 14 12 12 13 12 8 1 4 4 4 2 3 3 2
2 2 5 4 4 6 4 10 10 12 8 8 9 9 9 11 10 9 7 7 8 8 8 11 11 12 12 11 12 13 13 13 13 11 11 10 11 10 11 6 8 4 4 5 3 2 1 2 2
4 6 5 6 6 3 3 16 3 8 6 5 11 10 11 9 10 7 7 8 7 8 9 10 11 11 11 11 12 12 13 13 11 11 10 9 9 8 8 6 7 5 4 4 4 2 2 1 3
Wind_Direction
334 329 56 43 65 66 241 258 238 356 25 345 336 68 104 57 40 145 239 20 4 7 358 15 25 28 31 25 23 14 20 350 300 253 226 230 204 198 195 191 192 190 187 175 165 166 158 153 148
333 298 43 82 90 92 256 273 119 69 315 285 82 37 44 73 48 98 29 348 38 27 15 23 28 30 27 27 25 21 17 5 6 318 281 238 217 217 210 205 205 207 202 193 184 183 179 173 167
213 23 82 92 108 179 193 194 209 355 5 28 91 56 72 52 6 81 332 12 44 30 16 28 30 29 28 27 25 22 14 8 3 359 346 286 260 224 223 216 209 212 213 205 199 197 188 182 182
66 16 37 88 202 228 202 335 344 338 24 38 41 66 53 38 34 33 35 30 48 25 16 19 27 27 25 23 22 18 13 8 2 356 351 353 297 267 242 232 216 223 225 223 211 199 189 189 188
36 53 72 98 228 188 9 318 347 56 59 10 347 147 101 77 102 84 57 45 51 28 19 25 30 25 24 24 21 15 9 4 2 356 353 348 341 332 269 243 233 227 229 231 230 214 192 186 195
45 97 74 194 229 162 357 5 329 36 38 6 66 105 167 83 94 76 53 53 43 43 22 22 25 28 25 23 21 15 9 3 358 354 349 348 339 335 320 274 243 238 234 234 230 226 199 190 197
115 92 186 168 175 179 201 325 60 356 3 69 159 129 179 134 154 119 75 57 46 40 41 27 21 21 22 18 14 8 4 0 354 352 346 342 335 328 329 313 279 246 236 234 230 229 214 199 199
99 87 106 216 184 221 17 0 11 42 325 310 200 185 201 200 178 158 76 39 34 24 29 22 21 23 10 3 7 360 355 351 348 344 343 340 330 326 329 321 290 273 245 235 228 221 221 211 202
111 65 162 188 150 196 15 67 70 282 269 337 342 148 155 147 144 121 10 359 9 7 17 14 10 12 12 352 357 352 347 344 341 340 336 337 331 323 317 321 318 284 265 240 233 222 221 219 204
74 108 192 163 161 174 359 109 323 12 351 288 204 89 121 144 143 194 360 344 345 354 349 8 3 2 354 346 345 337 334 325 324 326 326 325 318 315 310 296 316 290 265 259 239 226 216 210 199
45 140 154 200 161 138 216 255 186 186 260 229 210 185 189 184 193 207 217 214 222 242 5 354 349 342 341 333 334 319 332 313 308 308 310 313 313 308 308 306 294 314 266 251 251 234 218 193 185
95 55 75 181 139 141 221 226 254 194 233 164 232 276 238 214 218 228 253 305 352 354 342 343 344 336 329 321 322 316 313 310 306 304 303 303 306 303 300 304 300 294 310 264 236 225 204 191 190
85 158 305 246 246 230 219 248 241 246 250 275 271 247 249 225 215 219 232 313 350 332 320 321 317 312 312 305 293 297 298 299 296 291 286 286 292 291 293 291 294 286 284 298 248 225 208 198 192
139 182 270 279 345 56 265 267 31 272 194 211 237 269 264 225 206 207 225 252 335 320 319 307 318 311 311 317 312 308 296 294 292 290 278 282 281 281 283 282 283 287 274 275 291 253 212 204 196
86 126 18 28 4 15 330 289 231 245 33 298 291 289 252 233 193 200 171 8 355 330 320 320 315 325 316 304 301 305 295 299 294 286 277 276 284 279 276 275 275 276 281 272 262 261 243 207 197
44 51 30 352 358 9 68 273 241 195 221 282 289 281 262 230 204 173 115 32 348 322 318 313 317 319 313 301 297 298 296 289 288 283 283 280 279 281 278 273 268 266 270 273 273 262 259 230 203
13 185 330 323 39 326 115 276 233 171 296 278 279 264 263 217 195 158 81 352 313 300 298 300 316 314 312 307 300 296 289 283 284 278 278 281 276 273 274 273 272 265 262 262 260 260 255 287 213
255 22 279 258 327 351 267 265 276 279 242 254 272 262 240 209 201 147 344 308 300 298 293 296 310 306 311 309 305 302 295 291 285 273 273 282 278 276 272 276 274 269 262 257 255 263 263 230 244
107 113 267 261 316 319 262 275 278 291 275 262 255 254 223 199 195 336 326 308 297 300 316 310 307 318 320 312 311 305 299 296 289 282 280 287 276 271 266 265 270 267 258 256 250 253 263 257 223
78 82 285 294 288 320 306 287 287 283 247 225 248 242 215 169 295 286 290 296 316 306 303 302 318 316 308 302 296 290 289 282 281 281 276 282 280 264 259 255 259 260 266 254 248 244 247 255 236
185 166 242 261 327 284 319 292 318 280 278 270 224 201 187 213 276 300 305 303 303 304 304 320 310 302 298 296 296 290 288 277 282 288 290 284 280 283 267 259 252 254 255 255 248 239 233 241 231
295 180 297 349 47 275 41 282 301 313 304 279 263 225 227 235 260 264 278 293 296 293 284 291 290 294 296 300 293 287 280 291 285 285 285 286 282 280 276 262 255 258 250 251 246 241 237 229 244
182 36 47 89 100 26 341 59 271 325 298 281 273 242 237 237 252 279 288 282 288 279 281 274 272 285 291 290 289 287 281 278 285 283 280 278 280 278 276 261 257 250 247 248 243 238 233 232 238
106 68 46 64 94 17 246 126 277 254 217 291 272 281 256 249 267 264 265 277 277 276 271 265 284 293 292 288 286 284 277 288 286 280 282 280 282 283 273 269 254 242 240 243 247 233 228 230 242
66 50 334 350 6 229 312 321 245 266 249 235 282 291 277 260 274 292 307 299 286 297 301 304 295 294 292 286 285 282 286 282 281 277 279 285 285 289 280 284 245 239 236 239 238 227 223 225 230
64 135 153 243 274 274 357 241 255 233 279 271 270 271 288 278 270 276 282 283 296 304 300 295 298 302 302 297 292 287 283 276 281 279 280 286 287 285 284 268 242 239 238 236 228 221 216 209 217
241 66 165 99 91 27 252 289 291 274 294 269 274 281 276 277 269 273 296 294 300 292 291 301 306 303 303 302 296 295 288 286 283 284 284 283 284 282 293 306 260 239 237 229 194 179 209 212 194
136 145 46 5 341 302 287 276 241 292 280 300 306 284 289 292 293 289 294 301 290 286 287 303 305 302 304 301 301 301 295 289 284 288 289 288 285 287 300 314 302 268 139 147 106 174 192 217 209
123 2 44 118 139 188 304 258 216 231 219 262 284 279 280 289 285 285 305 289 288 293 309 309 307 309 308 304 306 302 296 293 296 291 285 286 285 291 294 320 295 279 148 109 108 183 274 303 343
164 182 160 131 256 212 192 268 226 236 238 222 273 276 279 267 278 287 291 295 310 317 317 312 310 312 312 311 308 302 298 300 298 294 296 290 288 286 299 327 327 290 47 68 98 59 3 345 309